Oak Harbor, WA

6:13 AM PST on February 25, 2017 (GMT -0800)
Whidbey Island Naval Air Station

Weather History for KNUW - March, 2013

Change the Weather History Date:

Wednesday, March 6, 2013

  Actual Average Record
Temperature  
Mean Temperature 40 °F -  
Max Temperature 43 °F 47 °F 64 °F (2007)
Min Temperature 37 °F 35 °F 27 °F (2002)
Degree Days  
Heating Degree Days 25    
Moisture  
Dew Point 37 °F    
Average Humidity 86    
Maximum Humidity 93    
Minimum Humidity 79    
Precipitation  
Precipitation 0.35 in - - ()
Sea Level Pressure  
Sea Level Pressure 29.72 in    
Wind  
Wind Speed 4 mph (North)    
Max Wind Speed 12 mph    
Max Gust Speed -    
Visibility 8 miles    
Events Rain    
Averages and records for this station are not official NWS values.
T = Trace of Precipitation, MM = Missing Value Source: NWS Daily Summary

Daily Weather History Graph

Daily Weather History Graph

Search for Another Location

Airport or City:

Trip Planner

Search our weather history database for the weather conditions in past years. The results will help you decide how hot, cold, wet, or windy it might be!

Date:

Astronomy

Mar. 06, 2013 Rise Set
Actual Time 6:41 AM PST 6:02 PM PST
Civil Twilight 6:10 AM PST 6:34 PM PST
Nautical Twilight 5:34 AM PST 7:10 PM PST
Astronomical Twilight 4:57 AM PST 7:47 PM PST
Moon 3:15 AM PST (3/6) 12:31 PM PST (3/6)
Length of Visible Light 12h 23m
Length of Day
11h 21m
Waning Crescent, 29% of the Moon is Illuminated
Mar 6
Waning Crescent
Mar 11
New
Mar 19
First Quarter
Mar 27
Full
Apr 2
Last Quarter

Hourly Weather History & Observations

Time (PST) Temp. Windchill Dew Point Humidity Pressure Visibility Wind Dir Wind Speed Gust Speed Precip Events Conditions
12:56 AM 39.0 °F - 35.1 °F 86% 29.74 in 10.0 mi Calm Calm - N/A   Mostly Cloudy
1:56 AM 37.9 °F - 35.1 °F 89% 29.73 in 10.0 mi Calm Calm - N/A   Mostly Cloudy
2:56 AM 37.9 °F - 35.1 °F 89% 29.70 in 10.0 mi Calm Calm - N/A   Overcast
3:56 AM 41.0 °F - 36.0 °F 82% 29.67 in 10.0 mi Calm Calm - N/A   Overcast
4:56 AM 42.1 °F - 36.0 °F 79% 29.66 in 10.0 mi Calm Calm - 0.00 in Rain Light Rain
5:56 AM 41.0 °F 39.0 °F 37.0 °F 86% 29.65 in 10.0 mi NNE 3.5 mph - 0.00 in   Overcast
6:56 AM 42.1 °F 35.7 °F 37.0 °F 82% 29.63 in 10.0 mi North 11.5 mph - N/A   Overcast
7:56 AM 43.0 °F 38.8 °F 37.0 °F 80% 29.63 in 10.0 mi North 6.9 mph - N/A   Overcast
8:11 AM 42.8 °F 41.1 °F 37.4 °F 81% 29.62 in 9.0 mi North 3.5 mph - 0.00 in Rain Light Rain
8:56 AM 43.0 °F 38.8 °F 37.9 °F 82% 29.65 in 9.0 mi North 6.9 mph - 0.00 in Rain Light Rain
9:56 AM 43.0 °F 38.2 °F 39.0 °F 86% 29.65 in 7.0 mi North 8.1 mph - 0.04 in Rain Light Rain
10:54 AM 43.0 °F 38.8 °F 39.0 °F 86% 29.66 in 9.0 mi North 6.9 mph - 0.03 in Rain Light Rain
11:56 AM 43.0 °F 40.3 °F 39.9 °F 89% 29.67 in 5.0 mi North 4.6 mph - 0.03 in Rain Light Rain
12:09 PM 42.8 °F 39.3 °F 39.2 °F 87% 29.66 in 6.0 mi North 5.8 mph - 0.01 in Rain Light Rain
12:56 PM 43.0 °F 39.5 °F 39.0 °F 86% 29.68 in 6.0 mi North 5.8 mph - 0.04 in Rain Light Rain
1:47 PM 42.8 °F 37.5 °F 39.2 °F 87% 29.68 in 6.0 mi NNW 9.2 mph - 0.03 in Rain Light Rain
1:56 PM 42.1 °F 37.7 °F 39.0 °F 89% 29.69 in 5.0 mi NNW 6.9 mph - 0.04 in Rain Light Rain
2:56 PM 43.0 °F 38.8 °F 39.0 °F 86% 29.71 in 6.0 mi NW 6.9 mph - 0.03 in Rain Light Rain
3:56 PM 42.1 °F 36.1 °F 37.9 °F 85% 29.73 in 8.0 mi NW 10.4 mph - 0.02 in Rain Light Rain
4:23 PM 42.8 °F 37.5 °F 37.4 °F 81% 29.73 in 8.0 mi WNW 9.2 mph - 0.01 in Rain Light Rain
4:56 PM 41.0 °F 35.8 °F 37.0 °F 86% 29.75 in 8.0 mi WNW 8.1 mph - 0.02 in Rain Light Rain
5:56 PM 41.0 °F 37.1 °F 37.0 °F 86% 29.77 in 8.0 mi WSW 5.8 mph - 0.01 in Rain Light Rain
6:56 PM 41.0 °F 39.0 °F 37.0 °F 86% 29.80 in 10.0 mi SSW 3.5 mph - 0.02 in Rain Light Rain
7:56 PM 39.9 °F - 37.0 °F 89% 29.82 in 10.0 mi Calm Calm - 0.01 in Rain Light Rain
8:56 PM 39.9 °F 37.8 °F 37.0 °F 89% 29.84 in 10.0 mi SE 3.5 mph - 0.03 in Rain Light Rain
9:56 PM 39.0 °F 36.8 °F 37.0 °F 93% 29.87 in 8.0 mi SE 3.5 mph - 0.01 in Rain Light Rain
10:56 PM 39.9 °F 37.8 °F 37.0 °F 89% 29.89 in 9.0 mi ESE 3.5 mph - 0.00 in Rain Light Rain
11:56 PM 39.9 °F 36.7 °F 37.0 °F 89% 29.91 in 7.0 mi East 4.6 mph - 0.02 in Rain Light Rain